TimeAKDT,TemperatureF,Dew PointF,Humidity,Sea Level PressureIn,VisibilityMPH,Wind Direction,Wind SpeedMPH,Gust SpeedMPH,PrecipitationIn,Events,Conditions,WindDirDegrees,DateUTC
12:55 AM,39.9,28.6,64,30.02,10.0,SE,5.8,-,N/A,,Clear,140,2013-05-23 08:55:00
1:55 AM,37.9,26.2,63,30.03,10.0,SSE,5.8,-,N/A,,Clear,160,2013-05-23 09:55:00
2:55 AM,34.5,25.7,70,30.04,10.0,South,6.9,-,N/A,,Clear,170,2013-05-23 10:55:00
3:55 AM,35.4,26.2,69,30.05,10.0,SSE,5.8,-,N/A,,Clear,150,2013-05-23 11:55:00
4:55 AM,35.8,27.5,72,30.06,10.0,SSE,6.9,-,N/A,,Overcast,160,2013-05-23 12:55:00
5:55 AM,41.7,29.1,61,30.07,10.0,SSE,5.8,-,N/A,,Mostly Cloudy,160,2013-05-23 13:55:00
6:55 AM,47.7,30.2,51,30.07,10.0,SSE,5.8,-,N/A,,Overcast,160,2013-05-23 14:55:00
7:55 AM,48.9,30.7,50,30.07,10.0,Calm,Calm,-,N/A,,Overcast,0,2013-05-23 15:55:00
8:55 AM,51.8,31.8,47,30.08,10.0,Calm,Calm,-,N/A,,Mostly Cloudy,0,2013-05-23 16:55:00
9:55 AM,55.8,34.2,44,30.08,10.0,Variable,6.9,-,N/A,,Overcast,0,2013-05-23 17:55:00
10:55 AM,57.6,34.9,43,30.08,10.0,West,9.2,-,N/A,,Mostly Cloudy,270,2013-05-23 18:55:00
11:55 AM,59.7,35.1,40,30.08,10.0,WSW,12.7,-,N/A,,Overcast,250,2013-05-23 19:55:00
12:55 PM,61.2,34.7,37,30.08,10.0,Variable,6.9,-,N/A,,Overcast,0,2013-05-23 20:55:00
1:55 PM,61.3,34.9,37,30.08,10.0,Calm,Calm,-,N/A,,Overcast,0,2013-05-23 21:55:00
2:55 PM,62.6,35.1,36,30.07,10.0,Variable,5.8,-,N/A,,Overcast,0,2013-05-23 22:55:00
3:55 PM,63.5,35.4,35,30.07,10.0,WSW,12.7,-,N/A,,Overcast,240,2013-05-23 23:55:00
4:55 PM,62.1,34.9,36,30.07,10.0,West,8.1,-,N/A,,Overcast,270,2013-05-24 00:55:00
5:55 PM,62.6,35.1,36,30.07,10.0,West,8.1,-,N/A,,Overcast,270,2013-05-24 01:55:00
6:55 PM,62.4,35.2,36,30.07,10.0,West,8.1,-,N/A,,Overcast,280,2013-05-24 02:55:00
7:55 PM,58.3,39.6,50,30.08,10.0,West,10.4,-,N/A,,Partly Cloudy,280,2013-05-24 03:55:00
8:55 PM,60.6,39.6,46,30.08,10.0,Variable,6.9,-,N/A,,Overcast,0,2013-05-24 04:55:00
9:55 PM,57.9,39.9,51,30.09,10.0,Variable,5.8,-,N/A,,Overcast,0,2013-05-24 05:55:00
10:55 PM,54.9,40.3,58,30.10,10.0,Calm,Calm,-,N/A,,Mostly Cloudy,0,2013-05-24 06:55:00
11:55 PM,50.4,39.9,67,30.11,10.0,Calm,Calm,-,N/A,,Scattered Clouds,0,2013-05-24 07:55:00